#timestamp,LO_Frequency,Hit,StdDev 
1634983215.3,286047004.0,N
1634983235.2,286047004.6,N
1634983255.9,286047008.0,N
1634983275.7,286047006.3,N
1634983295.6,286047010.2,N
1634983315.4,286047010.6,N
1634983335.3,286047007.0,N
1634983355.1,286047005.5,N
1634983356.0,286047005.5,N
1634983375.8,286047003.7,N
1634983395.7,286047004.1,N
1634983415.5,286047008.6,N
1634983435.3,286047009.4,N
1634983455.2,286047010.7,N
1634983475.0,286047007.3,N
1634983475.9,286047007.3,N
1634983495.8,286047005.9,N
1634983515.6,286047003.4,N
1634983535.4,286047001.4,N
1634983555.3,286047002.1,N
1634983575.1,286047004.2,N
1634983595.8,286047003.8,N
1634983615.7,286047001.4,N
1634983635.5,286046998.5,N
1634983655.4,286047000.0,N
1634983675.2,286047000.6,N
1634983695.0,286047001.1,N
1634983695.9,286047001.1,N
1634983715.8,286047000.7,N
1634983735.6,286047002.8,N
1634983755.5,286047000.8,N
1634983775.3,286047000.5,N
1634983795.1,286046998.4,N
1634983815.9,286046998.9,N
1634983835.7,286046996.5,N
1634983855.5,286047000.7,N
1634983875.4,286046999.3,N
1634983895.2,286046996.6,N
1634983915.1,286046996.7,N
1634983916.0,286046996.7,N
1634983935.8,286046997.4,N
1634983955.6,286046997.4,N
1634983975.5,286046995.6,N
1634983995.3,286046995.5,N
1634984015.2,286046996.3,N
1634984035.9,286046991.8,N
1634984055.7,286046992.1,N
1634984075.6,286046995.1,N
1634984095.4,286046991.8,N
1634984115.2,286046990.7,N
1634984135.1,286046993.2,N
1634984136.0,286046993.2,N
1634984155.8,286046991.9,N
1634984175.7,286046994.8,N
1634984195.5,286046994.5,N
1634984215.3,286046993.0,N
1634984235.2,286046992.3,N
1634984255.0,286046997.4,N
1634984255.9,286046997.4,N
1634984275.8,286046997.2,N
1634984295.6,286046998.4,N
1634984315.4,286046998.0,N
1634984335.3,286046997.4,N
1634984355.1,286046997.3,N
1634984375.8,286046995.9,N
1634984395.7,286046992.0,Y
1634984415.5,286046997.7,P
1634984435.4,286046996.1,P
1634984455.2,286046995.1,P
1634984475.0,286046997.6,N
1634984475.9,286046997.6,N
1634984495.8,286046996.5,Y
1634984515.6,286046998.1,P
1634984535.4,286046998.6,N
1634984555.3,286046998.2,N
1634984575.1,286046998.3,N
1634984595.9,286046999.2,N
1634984615.7,286046997.9,N
1634984635.5,286046995.6,Y
1634984655.4,286047000.9,P
1634984675.2,286047000.9,N
1634984695.1,286047000.9,N
1634984696.0,286047000.9,N
1634984715.8,286046998.3,N
1634984735.6,286046998.2,N
1634984755.5,286046998.6,N
1634984775.3,286046998.9,N
1634984795.1,286046996.6,N
1634984815.9,286046998.6,N
1634984835.7,286046997.0,N
1634984855.6,286047000.9,N
1634984875.4,286046998.9,N
1634984895.2,286047003.7,N
1634984915.1,286047000.0,N
1634984916.0,286047000.0,N
1634984935.8,286046998.6,N
1634984955.6,286046998.7,N
1634984975.5,286046996.5,N
1634984995.3,286046996.6,N
1634985015.2,286046995.4,N
1634985035.9,286046995.1,N
1634985055.7,286046995.7,N
1634985075.6,286046996.0,N
1634985095.4,286046995.7,N
1634985115.2,286046998.9,N
1634985135.1,286046997.7,N
1634985136.0,286046997.7,N
1634985155.8,286046997.8,N
1634985175.7,286046995.8,N
1634985195.5,286046999.6,N
1634985215.3,286047002.3,N
1634985235.2,286046999.8,N
1634985255.0,286046997.0,N
1634985255.9,286046997.0,N
1634985275.8,286046996.1,N
1634985295.6,286046994.3,N
1634985315.4,286046996.8,N
1634985335.3,286046997.9,N
1634985355.1,286046995.9,N
1634985375.9,286046993.3,Y
1634985395.7,286046995.1,P
1634985415.5,286046999.4,N
1634985435.4,286046998.8,N
1634985455.2,286046998.4,N
1634985475.0,286047000.6,N
1634985475.9,286047000.6,N
1634985495.8,286047002.4,N
1634985515.6,286047000.1,N
1634985535.5,286047003.4,N
1634985555.3,286047004.1,N
1634985575.1,286047001.8,N
1634985595.9,286047001.9,N
1634985615.7,286047001.0,N
1634985635.5,286047001.4,N
1634985655.4,286046999.9,N
1634985675.2,286046997.0,N
1634985695.1,286046997.3,N
1634985696.0,286046997.3,N
1634985715.8,286046996.5,N
1634985735.6,286047000.7,N
1634985755.5,286047002.5,N
1634985775.3,286047005.8,N
1634985795.2,286047009.1,Y
1634985815.9,286047005.8,P
1634985835.7,286047000.0,N
1634985855.6,286046997.2,N
1634985875.4,286046999.6,N
1634985895.2,286046997.0,N
1634985915.1,286046996.7,N
1634985916.0,286046996.7,N
1634985935.8,286047001.9,N
1634985955.7,286047005.2,N
1634985975.5,286047007.4,N
1634985995.3,286047004.7,N
1634986015.2,286047003.4,N
1634986035.0,286047007.6,N
1634986035.9,286047007.6,N
1634986055.7,286047001.5,N
1634986075.6,286046999.6,N
1634986095.4,286046993.6,N
1634986115.3,286046990.7,N
1634986135.1,286046992.8,N
1634986136.0,286046992.8,N
1634986155.8,286046993.0,N
1634986175.7,286046992.2,N
1634986195.5,286046994.5,N
1634986215.4,286046990.6,N
1634986235.2,286046990.3,N
1634986255.0,286046988.5,N
1634986255.9,286046988.5,N
1634986275.8,286046991.9,N
1634986295.6,286046991.3,N
1634986315.4,286046987.6,N
1634986335.3,286046989.9,N
1634986355.1,286046987.7,N
1634986375.9,286046992.6,N
1634986395.7,286046994.0,N
1634986415.5,286046996.6,N
1634986435.4,286046998.1,N
1634986455.2,286047001.5,N
1634986475.0,286046997.7,N
1634986475.9,286046997.7,N
1634986495.8,286046993.5,N
1634986515.6,286046994.1,N
1634986535.5,286046990.7,N
1634986555.3,286046993.0,N
1634986575.1,286046993.9,N
1634986595.9,286046995.4,N
1634986615.7,286046994.3,N
1634986635.6,286046990.7,N
1634986655.4,286046991.7,N
1634986675.2,286046995.6,N
1634986695.1,286046992.0,N
1634986696.0,286046992.0,N
1634986715.8,286046988.6,Y
1634986735.7,286046994.6,P
1634986755.5,286046993.6,P
1634986775.3,286046993.4,P
1634986795.2,286046995.0,Y
